JTC427 LOWI-LIML

Flight info

Callsign JTC427
Flight time N/A
Altitude 19000
Route BRENO M726 EKPIS/N0474F210 DCT NAXAV/N0481F230 DCT RENTA DCT ATPED DCT LUSIL
Aircraft C750/M-SBDE3FGHRWXY/S

Departure

Time 2026-05-05 11:13
Airport Innsbruck Airport (LOWI)

Arrival

Time N/A
Airport Milano Linate Airport (LIML)
Time Latitude Longitude Altitude Speed Heading
2026-05-05 10:55 47.25787 11.34753 1891 ft 0 kts 171°
2026-05-05 11:08 47.25804 11.34749 1893 ft 4 kts 176°
2026-05-05 11:09 47.25828 11.34750 1897 ft 4 kts 196°
2026-05-05 11:09 47.25847 11.34768 1892 ft 4 kts 254°
2026-05-05 11:09 47.25849 11.34780 1894 ft 0 kts 261°
2026-05-05 11:09 47.25849 11.34781 1894 ft 0 kts 261°
2026-05-05 11:10 47.25848 11.34768 1891 ft 3 kts 261°
2026-05-05 11:11 47.25844 11.34732 1891 ft 4 kts 261°
2026-05-05 11:11 47.25838 11.34679 1900 ft 8 kts 261°
2026-05-05 11:11 47.25825 11.34552 1900 ft 17 kts 261°
2026-05-05 11:11 47.25803 11.34339 1897 ft 26 kts 262°
2026-05-05 11:12 47.25771 11.34034 1900 ft 34 kts 270°
2026-05-05 11:12 47.25872 11.33752 1896 ft 28 kts 306°
2026-05-05 11:12 47.25947 11.33707 1898 ft 8 kts 77°
2026-05-05 11:12 47.25949 11.33729 1890 ft 8 kts 80°
2026-05-05 11:13 47.25986 11.34062 1900 ft 59 kts 81°
2026-05-05 11:13 47.26072 11.34871 1900 ft 103 kts 81°
2026-05-05 11:13 47.26213 11.36137 2231 ft 142 kts 83°
2026-05-05 11:13 47.26366 11.37705 2847 ft 166 kts 84°
2026-05-05 11:14 47.26544 11.39437 3556 ft 180 kts 82°
2026-05-05 11:14 47.26789 11.41181 4528 ft 178 kts 84°
2026-05-05 11:14 47.26968 11.43075 4936 ft 197 kts 87°
2026-05-05 11:14 47.27191 11.45000 6080 ft 185 kts 77°
2026-05-05 11:15 47.27672 11.46773 6998 ft 190 kts 70°
2026-05-05 11:15 47.28212 11.48584 7849 ft 195 kts 72°
2026-05-05 11:15 47.28715 11.50436 8870 ft 196 kts 73°
2026-05-05 11:15 47.29241 11.52316 9766 ft 201 kts 72°
2026-05-05 11:16 47.29781 11.54211 10565 ft 205 kts 72°
2026-05-05 11:16 47.30336 11.56162 11353 ft 209 kts 71°
2026-05-05 11:16 47.30899 11.58151 12187 ft 212 kts 72°
2026-05-05 11:16 47.31462 11.60178 12971 ft 216 kts 73°
2026-05-05 11:17 47.31649 11.62345 13632 ft 215 kts 107°
2026-05-05 11:17 47.31025 11.64230 14457 ft 200 kts 136°
2026-05-05 11:17 47.29906 11.65324 15202 ft 192 kts 166°
2026-05-05 11:17 47.28599 11.65453 15960 ft 190 kts 192°
2026-05-05 11:18 47.27396 11.64651 16597 ft 198 kts 211°
2026-05-05 11:18 47.26175 11.63495 16946 ft 221 kts 211°
2026-05-05 11:18 47.24817 11.62272 17365 ft 243 kts 210°
2026-05-05 11:18 47.23307 11.60897 17740 ft 267 kts 211°
2026-05-05 11:19 47.21662 11.59363 18025 ft 292 kts 211°
2026-05-05 11:19 47.19869 11.57694 18228 ft 318 kts 212°
2026-05-05 11:19 47.17914 11.55891 18328 ft 345 kts 212°
2026-05-05 11:19 47.15820 11.53971 18388 ft 365 kts 212°
2026-05-05 11:20 47.13620 11.51952 18777 ft 376 kts 212°
2026-05-05 11:20 47.11434 11.49943 19569 ft 377 kts 212°
2026-05-05 11:20 47.09225 11.47919 20285 ft 381 kts 212°
2026-05-05 11:20 47.06964 11.45851 20948 ft 386 kts 212°
2026-05-05 11:21 47.04679 11.43762 21694 ft 388 kts 211°
2026-05-05 11:21 47.02380 11.41662 22428 ft 391 kts 211°
2026-05-05 11:21 47.00019 11.39617 22892 ft 400 kts 206°
2026-05-05 11:21 46.97358 11.38114 22911 ft 419 kts 197°
2026-05-05 11:22 46.94439 11.37271 22912 ft 437 kts 187°
2026-05-05 11:22 46.91373 11.36941 22935 ft 451 kts 185°
2026-05-05 11:22 46.88216 11.36610 22944 ft 457 kts 185°
2026-05-05 11:22 46.85076 11.36249 22958 ft 461 kts 185°
2026-05-05 11:23 46.81892 11.35890 22962 ft 460 kts 185°
2026-05-05 11:23 46.78698 11.35552 22968 ft 462 kts 185°
2026-05-05 11:23 46.75493 11.35218 22979 ft 462 kts 185°
2026-05-05 11:23 46.72283 11.34888 22978 ft 462 kts 185°
2026-05-05 11:24 46.69077 11.34559 22978 ft 462 kts 185°
2026-05-05 11:24 46.65880 11.34227 22981 ft 463 kts 185°
2026-05-05 11:24 46.62678 11.33895 22985 ft 462 kts 185°
2026-05-05 11:24 46.59517 11.33561 22980 ft 458 kts 185°
2026-05-05 11:25 46.56379 11.32814 22974 ft 458 kts 193°
2026-05-05 11:25 46.53344 11.31469 22985 ft 456 kts 200°
2026-05-05 11:25 46.50454 11.29559 22987 ft 458 kts 207°
2026-05-05 11:25 46.47752 11.27109 22980 ft 459 kts 214°
2026-05-05 11:26 46.45289 11.24159 22984 ft 460 kts 221°
2026-05-05 11:26 46.43129 11.20792 22984 ft 461 kts 229°
2026-05-05 11:26 46.41282 11.17024 22993 ft 458 kts 236°
2026-05-05 11:26 46.39772 11.12951 23043 ft 460 kts 241°
2026-05-05 11:27 46.38365 11.08843 23052 ft 462 kts 241°
2026-05-05 11:27 46.36926 11.04719 23052 ft 463 kts 240°
2026-05-05 11:27 46.35479 11.00569 23051 ft 462 kts 241°
2026-05-05 11:27 46.34042 10.96400 23054 ft 463 kts 241°
2026-05-05 11:28 46.32605 10.92237 23046 ft 463 kts 241°
2026-05-05 11:28 46.31156 10.88079 23042 ft 463 kts 240°
2026-05-05 11:28 46.29705 10.83931 23044 ft 459 kts 240°
2026-05-05 11:28 46.27938 10.80154 23019 ft 453 kts 228°
2026-05-05 11:29 46.25912 10.76734 23026 ft 454 kts 227°
2026-05-05 11:29 46.23951 10.73189 23035 ft 456 kts 230°
2026-05-05 11:29 46.22056 10.69511 23015 ft 456 kts 231°
2026-05-05 11:29 46.20128 10.65897 23032 ft 455 kts 229°
2026-05-05 11:30 46.18129 10.62347 23020 ft 455 kts 229°
2026-05-05 11:30 46.16164 10.58822 23024 ft 455 kts 230°
2026-05-05 11:30 46.14225 10.55220 23015 ft 455 kts 230°
2026-05-05 11:30 46.12280 10.51612 23013 ft 455 kts 230°
2026-05-05 11:31 46.10308 10.48047 23009 ft 455 kts 229°
2026-05-05 11:31 46.08351 10.44525 23018 ft 453 kts 229°
2026-05-05 11:31 46.06401 10.40969 23009 ft 453 kts 230°
2026-05-05 11:31 46.04481 10.37453 23002 ft 452 kts 230°
2026-05-05 11:32 46.02525 10.33909 23006 ft 452 kts 229°
2026-05-05 11:32 46.00577 10.30398 22997 ft 451 kts 229°
2026-05-05 11:32 45.98624 10.26867 23000 ft 451 kts 230°
2026-05-05 11:32 45.96674 10.23332 22998 ft 451 kts 230°
2026-05-05 11:33 45.94721 10.19805 22982 ft 452 kts 229°
2026-05-05 11:33 45.92773 10.16301 22984 ft 451 kts 229°
2026-05-05 11:33 45.90812 10.12776 22981 ft 452 kts 230°
2026-05-05 11:33 45.88854 10.09250 22971 ft 450 kts 230°
2026-05-05 11:34 45.86900 10.05738 22970 ft 451 kts 230°
2026-05-05 11:34 45.84983 10.02303 22987 ft 451 kts 230°
2026-05-05 11:34 45.83022 9.98795 22970 ft 450 kts 230°
2026-05-05 11:34 45.81065 9.95292 22978 ft 450 kts 230°
2026-05-05 11:35 45.79108 9.91792 22991 ft 450 kts 230°
2026-05-05 11:35 45.77162 9.88322 22985 ft 451 kts 230°
2026-05-05 11:35 45.75198 9.84824 23009 ft 451 kts 230°
2026-05-05 11:35 45.73239 9.81337 22979 ft 446 kts 230°
2026-05-05 11:36 45.71289 9.77868 22974 ft 448 kts 230°
2026-05-05 11:36 45.69428 9.74565 22987 ft 449 kts 230°
2026-05-05 11:36 45.67490 9.71124 22974 ft 411 kts 230°
2026-05-05 11:36 45.65764 9.68063 22901 ft 385 kts 230°
2026-05-05 11:37 45.64074 9.65081 22843 ft 386 kts 230°
2026-05-05 11:37 45.62449 9.62214 22762 ft 385 kts 230°
2026-05-05 11:37 45.60719 9.59156 22807 ft 384 kts 230°
2026-05-05 11:37 45.59040 9.56192 22724 ft 384 kts 230°
2026-05-05 11:38 45.57360 9.53232 22641 ft 384 kts 230°
2026-05-05 11:38 45.55794 9.50346 22535 ft 383 kts 234°
2026-05-05 11:38 45.54372 9.46997 22443 ft 383 kts 238°
2026-05-05 11:38 45.53026 9.43785 22270 ft 384 kts 237°
2026-05-05 11:39 45.51640 9.40553 21778 ft 379 kts 237°
2026-05-05 11:39 45.50280 9.37355 21152 ft 376 kts 237°
2026-05-05 11:39 45.48941 9.34170 20676 ft 373 kts 237°
2026-05-05 11:39 45.47610 9.31019 20194 ft 370 kts 237°
2026-05-05 11:40 45.46281 9.27897 19719 ft 367 kts 237°
2026-05-05 11:40 45.44939 9.24946 19259 ft 365 kts 236°
2026-05-05 11:40 45.43517 9.21877 18776 ft 362 kts 236°
2026-05-05 11:40 45.42162 9.18930 18314 ft 359 kts 236°
2026-05-05 11:41 45.40800 9.15968 17816 ft 357 kts 236°
2026-05-05 11:41 45.39471 9.13089 17357 ft 352 kts 236°
2026-05-05 11:41 45.38113 9.10155 16893 ft 351 kts 236°
2026-05-05 11:41 45.36775 9.07264 16441 ft 349 kts 236°
2026-05-05 11:42 45.35323 9.04514 15968 ft 348 kts 227°
2026-05-05 11:42 45.33536 9.02301 15525 ft 346 kts 217°
2026-05-05 11:42 45.31419 9.00622 15068 ft 346 kts 205°
2026-05-05 11:42 45.29118 8.99617 14612 ft 348 kts 194°
2026-05-05 11:43 45.26741 8.99280 14168 ft 348 kts 186°
2026-05-05 11:43 45.24330 8.99117 13705 ft 346 kts 186°
2026-05-05 11:43 45.21947 8.98927 13225 ft 345 kts 186°
2026-05-05 11:43 45.19555 8.98738 12774 ft 344 kts 186°
2026-05-05 11:44 45.17173 8.98564 12322 ft 342 kts 186°
2026-05-05 11:44 45.14802 8.98391 11873 ft 340 kts 185°
2026-05-05 11:44 45.12458 8.98215 11425 ft 339 kts 185°
2026-05-05 11:44 45.10139 8.98241 10938 ft 325 kts 174°
2026-05-05 11:45 45.08134 8.99401 10525 ft 310 kts 150°
2026-05-05 11:45 45.06638 9.01492 10133 ft 300 kts 128°
2026-05-05 11:45 45.05820 9.04157 9729 ft 299 kts 105°
2026-05-05 11:45 45.05764 9.07085 9292 ft 300 kts 83°
2026-05-05 11:46 45.06487 9.09838 8868 ft 300 kts 60°
2026-05-05 11:46 45.07848 9.12052 8478 ft 298 kts 44°
2026-05-05 11:46 45.09347 9.14042 8075 ft 298 kts 43°
2026-05-05 11:46 45.10845 9.16048 7650 ft 296 kts 44°
2026-05-05 11:47 45.12326 9.18048 7218 ft 291 kts 44°
2026-05-05 11:47 45.13747 9.19963 6815 ft 280 kts 44°
2026-05-05 11:47 45.15129 9.21820 6425 ft 270 kts 44°